Dickinson, ND

6:26 PM MDT on October 18, 2017 (GMT -0600)
Dickinson Municipal

Weather History for KDIK - November, 2013

Change the Weather History Date:

Friday, November 8, 2013

  Actual Average Record
Temperature  
Mean Temperature 41 °F 33 °F  
Max Temperature 50 °F 44 °F 78 °F (1999)
Min Temperature 31 °F 22 °F -13 °F (1895)
Degree Days  
Heating Degree Days 24 32  
Month to date heating degree days 232 240  
Since 1 July heating degree days 1113 1251  
Cooling Degree Days 0 0  
Month to date cooling degree days 0 0  
Year to date cooling degree days 386 419  
Moisture  
Dew Point 32 °F    
Average Humidity 67    
Maximum Humidity 85    
Minimum Humidity 48    
Precipitation  
Precipitation 0.01 in 0.02 in 0.38 in (1978)
Month to date precipitation 0.03 0.20  
Year to date precipitation 20.97 15.19  
Sea Level Pressure  
Sea Level Pressure 29.68 in    
Wind  
Wind Speed 18 mph (West)    
Max Wind Speed 37 mph    
Max Gust Speed 44 mph    
Visibility 10 miles    
Events Rain    
T = Trace of Precipitation, MM = Missing Value Source: NWS Daily Summary

Daily Weather History Graph

Daily Weather History Graph

Search for Another Location

Airport or City:

Trip Planner

Search our weather history database for the weather conditions in past years. The results will help you decide how hot, cold, wet, or windy it might be!

Date:

Astronomy

Nov. 08, 2013 Rise Set
Actual Time 6:44 AM MST 4:25 PM MST
Civil Twilight 6:11 AM MST 4:57 PM MST
Nautical Twilight 5:35 AM MST 5:33 PM MST
Astronomical Twilight 4:59 AM MST 6:09 PM MST
Moon 11:41 AM MST (11/8) 9:49 PM MST (11/8)
Length of Visible Light 10h 45m
Length of Day
9h 40m
Waxing Crescent, 34% of the Moon is Illuminated
Nov 8
Waxing Crescent
Nov 9
First Quarter
Nov 17
Full
Nov 25
Last Quarter
Dec 2
New

Hourly Weather History & Observations

Time (MST) Temp. Windchill Dew Point Humidity Pressure Visibility Wind Dir Wind Speed Gust Speed Precip Events Conditions
12:56 AM 37.9 °F 28.5 °F 23.0 °F 55% 29.74 in 10.0 mi ESE 17.3 mph - N/A   Overcast
1:56 AM 37.0 °F 27.7 °F 25.0 °F 62% 29.71 in 10.0 mi SE 16.1 mph - N/A   Overcast
2:56 AM 36.0 °F 27.1 °F 25.0 °F 64% 29.68 in 10.0 mi SE 13.8 mph - N/A   Overcast
3:56 AM 36.0 °F 26.7 °F 26.1 °F 67% 29.65 in 10.0 mi SE 15.0 mph - N/A   Overcast
4:56 AM 35.1 °F 26.9 °F 26.1 °F 70% 29.64 in 10.0 mi SE 11.5 mph - N/A   Overcast
5:56 AM 32.0 °F 23.6 °F 26.1 °F 79% 29.60 in 10.0 mi SE 10.4 mph - 0.00 in   Clear
6:56 AM 32.0 °F - 28.0 °F 85% 29.62 in 10.0 mi Calm Calm - N/A   Mostly Cloudy
7:56 AM 35.1 °F 29.3 °F 28.0 °F 76% 29.62 in 10.0 mi WSW 6.9 mph - N/A   Partly Cloudy
8:56 AM 39.9 °F 30.8 °F 36.0 °F 86% 29.60 in 10.0 mi West 18.4 mph 25.3 mph 0.01 in Rain Light Rain
9:03 AM 41.0 °F 31.6 °F 37.0 °F 86% 29.55 in 10.0 mi West 20.7 mph 25.3 mph 0.00 in Rain Light Rain
9:56 AM 42.1 °F 33.3 °F 37.9 °F 85% 29.60 in 10.0 mi West 19.6 mph 31.1 mph 0.00 in   Overcast
10:56 AM 42.1 °F 33.9 °F 37.9 °F 85% 29.61 in 10.0 mi West 17.3 mph - 0.00 in   Overcast
11:30 AM 43.0 °F 33.8 °F 37.9 °F 82% 29.56 in 10.0 mi WNW 23.0 mph - N/A   Overcast
11:56 AM 44.1 °F 34.8 °F 37.9 °F 79% 29.60 in 10.0 mi WNW 25.3 mph 32.2 mph N/A   Overcast
12:04 PM 44.1 °F 34.8 °F 37.9 °F 79% 29.56 in 10.0 mi WNW 25.3 mph 32.2 mph N/A   Overcast
12:56 PM 48.9 °F - 37.9 °F 66% 29.60 in 10.0 mi WNW 24.2 mph 32.2 mph N/A   Mostly Cloudy
1:56 PM 48.0 °F - 33.1 °F 56% 29.62 in 10.0 mi West 27.6 mph 40.3 mph N/A   Mostly Cloudy
2:56 PM 48.0 °F - 32.0 °F 54% 29.64 in 10.0 mi West 23.0 mph 31.1 mph N/A   Overcast
3:56 PM 48.0 °F - 32.0 °F 54% 29.66 in 10.0 mi West 20.7 mph 29.9 mph N/A   Overcast
4:56 PM 45.0 °F 36.9 °F 30.0 °F 56% 29.70 in 10.0 mi WNW 20.7 mph 28.8 mph N/A   Clear
5:56 PM 44.1 °F 35.4 °F 30.9 °F 60% 29.73 in 10.0 mi WNW 21.9 mph - N/A   Clear
6:56 PM 43.0 °F 34.2 °F 30.9 °F 62% 29.77 in 10.0 mi WNW 20.7 mph 29.9 mph N/A   Mostly Cloudy
7:43 PM 41.0 °F 30.7 °F 32.0 °F 70% 29.74 in 10.0 mi WNW 25.3 mph 36.8 mph N/A   Overcast
7:56 PM 41.0 °F 31.1 °F 32.0 °F 70% 29.80 in 10.0 mi WNW 23.0 mph 33.4 mph N/A   Overcast
8:54 PM 39.2 °F 29.8 °F 32.0 °F 75% 29.78 in 10.0 mi WNW 18.4 mph - N/A   Overcast
8:56 PM 39.9 °F 30.8 °F 32.0 °F 73% 29.82 in 10.0 mi WNW 18.4 mph - N/A   Overcast
9:56 PM 39.0 °F 29.3 °F 32.0 °F 76% 29.85 in 10.0 mi WNW 19.6 mph 24.2 mph N/A   Overcast
10:56 PM 37.9 °F 28.9 °F 30.0 °F 73% 29.87 in 10.0 mi WNW 16.1 mph - N/A   Overcast
11:56 PM 34.0 °F 25.0 °F 28.9 °F 82% 29.90 in 10.0 mi WNW 12.7 mph - N/A   Clear